Grafton, ND

7:29 PM CST on February 26, 2017 (GMT -0600)
Grafton Municipal

Weather History for KGAF - February, 2014

Change the Weather History Date:

Monday, February 3, 2014

  Actual Average Record
Temperature  
Mean Temperature 4 °F -  
Max Temperature 14 °F 16 °F 50 °F (1991)
Min Temperature -7 °F -2 °F -32 °F (1989)
Degree Days  
Heating Degree Days 62    
Moisture  
Dew Point -3 °F    
Average Humidity 73    
Maximum Humidity 85    
Minimum Humidity 57    
Precipitation  
Precipitation 0.00 in - - ()
Sea Level Pressure  
Sea Level Pressure 30.23 in    
Wind  
Wind Speed 11 mph (WNW)    
Max Wind Speed 21 mph    
Max Gust Speed 25 mph    
Visibility 10 miles    
Events Snow    
Averages and records for this station are not official NWS values.
T = Trace of Precipitation, MM = Missing Value Source: NWS Daily Summary

Daily Weather History Graph

Daily Weather History Graph

Search for Another Location

Airport or City:

Trip Planner

Search our weather history database for the weather conditions in past years. The results will help you decide how hot, cold, wet, or windy it might be!

Date:

Astronomy

Feb. 03, 2014 Rise Set
Actual Time 7:55 AM CST 5:31 PM CST
Civil Twilight 7:22 AM CST 6:05 PM CST
Nautical Twilight 6:44 AM CST 6:42 PM CST
Astronomical Twilight 6:08 AM CST 7:19 PM CST
Moon 9:33 AM CST (2/3) 10:51 PM CST (2/3)
Length of Visible Light 10h 43m
Length of Day
9h 36m
Waxing Crescent, 20% of the Moon is Illuminated
Feb 3
Waxing Crescent
Feb 6
First Quarter
Feb 14
Full
Feb 22
Last Quarter
Mar 1
New

Hourly Weather History & Observations

Time (CST) Temp. Windchill Dew Point Humidity Pressure Visibility Wind Dir Wind Speed Gust Speed Precip Events Conditions
12:15 AM 6.8 °F -9.3 °F -0.4 °F 72% 30.09 in 10.0 mi WNW 12.7 mph - N/A   Clear
12:35 AM 6.8 °F -10.0 °F -0.4 °F 72% 30.09 in 10.0 mi WNW 13.8 mph - N/A   Clear
12:55 AM 6.8 °F -10.0 °F -0.4 °F 72% 30.10 in 10.0 mi WNW 13.8 mph - N/A   Clear
1:15 AM 6.8 °F -10.7 °F -0.4 °F 72% 30.11 in 10.0 mi WNW 15.0 mph 23.0 mph N/A   Clear
1:35 AM 6.8 °F -9.3 °F -2.2 °F 67% 30.11 in 10.0 mi WNW 12.7 mph - N/A   Clear
1:55 AM 6.8 °F -8.6 °F -2.2 °F 67% 30.11 in 10.0 mi WNW 11.5 mph - N/A   Clear
2:15 AM 5.0 °F -11.6 °F -2.2 °F 72% 30.11 in 10.0 mi West 12.7 mph - N/A   Clear
2:35 AM 5.0 °F -10.8 °F -2.2 °F 72% 30.11 in 10.0 mi West 11.5 mph - N/A   Clear
2:55 AM 3.2 °F -13.1 °F -4.0 °F 72% 30.12 in 10.0 mi West 11.5 mph - N/A   Clear
3:15 AM 1.4 °F -13.5 °F -5.8 °F 72% 30.12 in 10.0 mi SW 9.2 mph - N/A   Clear
3:35 AM -0.4 °F -16.7 °F -7.6 °F 72% 30.12 in 10.0 mi West 10.4 mph - N/A   Clear
3:55 AM -2.2 °F -18.9 °F -7.6 °F 78% 30.13 in 10.0 mi West 10.4 mph - N/A   Clear
4:15 AM -0.4 °F -18.4 °F -7.6 °F 72% 30.13 in 10.0 mi West 12.7 mph - N/A   Clear
4:35 AM -0.4 °F -18.4 °F -5.8 °F 78% 30.13 in 10.0 mi West 12.7 mph - N/A   Mostly Cloudy
4:55 AM 1.4 °F -16.1 °F -4.0 °F 78% 30.13 in 10.0 mi West 12.7 mph - N/A   Overcast
5:15 AM 1.4 °F -13.5 °F -4.0 °F 78% 30.13 in 10.0 mi West 9.2 mph - N/A   Overcast
5:35 AM 5.0 °F -10.8 °F -2.2 °F 72% 30.14 in 10.0 mi West 11.5 mph - N/A   Overcast
5:55 AM 5.0 °F -10.0 °F -2.2 °F 72% 30.14 in 10.0 mi WNW 10.4 mph - N/A   Overcast
6:15 AM 5.0 °F -5.6 °F -2.2 °F 72% 30.14 in 10.0 mi West 5.8 mph - N/A   Overcast
6:35 AM 1.4 °F -12.5 °F -2.2 °F 85% 30.14 in 10.0 mi West 8.1 mph - N/A   Overcast
6:55 AM 5.0 °F -5.6 °F -2.2 °F 72% 30.15 in 10.0 mi West 5.8 mph - N/A   Overcast
7:15 AM 1.4 °F -9.9 °F -2.2 °F 85% 30.15 in 10.0 mi WSW 5.8 mph - N/A   Overcast
7:35 AM 3.2 °F -7.8 °F -2.2 °F 78% 30.16 in 10.0 mi SW 5.8 mph - N/A   Overcast
7:55 AM 5.0 °F -8.1 °F -2.2 °F 72% 30.17 in 10.0 mi WSW 8.1 mph - N/A   Overcast
8:15 AM 5.0 °F -8.1 °F -0.4 °F 78% 30.17 in 10.0 mi WSW 8.1 mph - N/A   Overcast
8:35 AM 5.0 °F -6.9 °F -0.4 °F 78% 30.18 in 10.0 mi WSW 6.9 mph - N/A   Overcast
8:55 AM 5.0 °F -6.9 °F -0.4 °F 78% 30.18 in 10.0 mi WSW 6.9 mph - N/A   Overcast
9:15 AM 6.8 °F -3.5 °F -0.4 °F 72% 30.18 in 10.0 mi WSW 5.8 mph - N/A   Overcast
9:35 AM 6.8 °F -5.9 °F -0.4 °F 72% 30.18 in 10.0 mi WSW 8.1 mph - N/A   Overcast
9:55 AM 6.8 °F -2.0 °F 1.4 °F 79% 30.18 in 10.0 mi SW 4.6 mph - N/A   Overcast
10:15 AM 8.6 °F 0.1 °F 1.4 °F 73% 30.19 in 10.0 mi SW 4.6 mph - N/A   Overcast
10:35 AM 8.6 °F -2.6 °F 1.4 °F 73% 30.19 in 10.0 mi WSW 6.9 mph - N/A   Overcast
10:55 AM 8.6 °F -2.6 °F 5.0 °F 85% 30.20 in 8.0 mi WSW 6.9 mph - N/A   Overcast
11:15 AM 10.4 °F -0.4 °F 5.0 °F 79% 30.20 in 10.0 mi WSW 6.9 mph - N/A   Overcast
11:35 AM 12.2 °F 0.7 °F 5.0 °F 73% 30.20 in 10.0 mi West 8.1 mph - N/A   Overcast
11:55 AM 12.2 °F -1.8 °F 5.0 °F 73% 30.20 in 10.0 mi West 11.5 mph - N/A   Overcast
12:15 PM 14.0 °F -0.2 °F 5.0 °F 67% 30.20 in 10.0 mi WNW 12.7 mph - N/A   Overcast
12:35 PM 14.0 °F 2.0 °F 5.0 °F 67% 30.19 in 10.0 mi WNW 9.2 mph - N/A   Overcast
12:55 PM 14.0 °F 1.2 °F 5.0 °F 67% 30.19 in 10.0 mi WNW 10.4 mph - N/A   Scattered Clouds
1:15 PM 14.0 °F 1.2 °F 5.0 °F 67% 30.20 in 10.0 mi WNW 10.4 mph - N/A   Clear
1:35 PM 14.0 °F 2.0 °F 3.2 °F 62% 30.20 in 10.0 mi West 9.2 mph - N/A   Partly Cloudy
1:55 PM 14.0 °F -2.5 °F 1.4 °F 57% 30.20 in 10.0 mi West 17.3 mph - N/A   Mostly Cloudy
2:15 PM 14.0 °F -1.4 °F 5.0 °F 67% 30.21 in 10.0 mi NW 15.0 mph - N/A   Mostly Cloudy
2:35 PM 14.0 °F -1.4 °F 5.0 °F 67% 30.21 in 10.0 mi WNW 15.0 mph - N/A   Mostly Cloudy
2:55 PM 12.2 °F -4.8 °F 5.0 °F 73% 30.22 in 10.0 mi WNW 17.3 mph - N/A   Overcast
3:15 PM 10.4 °F -8.6 °F 3.2 °F 73% 30.23 in 10.0 mi NW 20.7 mph 25.3 mph N/A   Overcast
3:35 PM 8.6 °F -10.0 °F 1.4 °F 73% 30.23 in 10.0 mi NW 18.4 mph 21.9 mph N/A   Overcast
3:55 PM 8.6 °F -10.5 °F -0.4 °F 67% 30.24 in 10.0 mi NW 19.6 mph 24.2 mph N/A   Overcast
4:15 PM 6.8 °F -11.8 °F -0.4 °F 72% 30.25 in 10.0 mi NW 17.3 mph - N/A   Mostly Cloudy
4:35 PM 6.8 °F -10.0 °F -0.4 °F 72% 30.26 in 10.0 mi NW 13.8 mph - N/A   Partly Cloudy
4:55 PM 5.0 °F -13.0 °F -2.2 °F 72% 30.27 in 10.0 mi NW 15.0 mph 20.7 mph N/A   Clear
5:15 PM 3.2 °F -15.3 °F -4.0 °F 72% 30.28 in 10.0 mi WNW 15.0 mph - N/A   Clear
5:35 PM 1.4 °F -16.1 °F -5.8 °F 72% 30.29 in 10.0 mi NW 12.7 mph - N/A   Scattered Clouds
5:55 PM 1.4 °F -14.5 °F -5.8 °F 72% 30.31 in 10.0 mi NW 10.4 mph - N/A   Mostly Cloudy
6:15 PM 1.4 °F -14.5 °F -2.2 °F 85% 30.32 in 2.5 mi NNW 10.4 mph - N/A Snow Light Snow
6:35 PM 1.4 °F -16.9 °F -2.2 °F 85% 30.33 in 5.0 mi NNW 13.8 mph - N/A Snow Light Snow
6:55 PM 1.4 °F -16.1 °F -4.0 °F 78% 30.34 in 10.0 mi NNW 12.7 mph 20.7 mph N/A   Overcast
7:15 PM -0.4 °F -15.7 °F -5.8 °F 78% 30.34 in 10.0 mi NNW 9.2 mph - N/A   Scattered Clouds
7:35 PM -0.4 °F -15.7 °F -5.8 °F 78% 30.36 in 10.0 mi NNW 9.2 mph - N/A   Partly Cloudy
7:55 PM -0.4 °F -15.7 °F -5.8 °F 78% 30.36 in 10.0 mi NW 9.2 mph - N/A   Mostly Cloudy
8:15 PM -0.4 °F -16.7 °F -7.6 °F 72% 30.36 in 10.0 mi NW 10.4 mph - N/A   Mostly Cloudy
8:35 PM -0.4 °F -16.7 °F -7.6 °F 72% 30.37 in 10.0 mi NW 10.4 mph - N/A   Partly Cloudy
8:55 PM -2.2 °F -18.0 °F -9.4 °F 71% 30.38 in 10.0 mi NW 9.2 mph - N/A   Clear
9:15 PM -2.2 °F -18.0 °F -9.4 °F 71% 30.39 in 10.0 mi NW 9.2 mph - N/A   Clear
9:35 PM -2.2 °F -18.0 °F -11.2 °F 66% 30.39 in 10.0 mi NW 9.2 mph - N/A   Clear
9:55 PM -2.2 °F -18.9 °F -11.2 °F 66% 30.39 in 10.0 mi NW 10.4 mph - N/A   Clear
10:15 PM -4.0 °F -20.2 °F -11.2 °F 71% 30.40 in 10.0 mi NW 9.2 mph - N/A   Clear
10:35 PM -4.0 °F -20.2 °F -13.0 °F 65% 30.41 in 10.0 mi WNW 9.2 mph - N/A   Clear
10:55 PM -7.6 °F -23.4 °F -13.0 °F 77% 30.41 in 10.0 mi West 8.1 mph - N/A   Clear
11:15 PM -7.6 °F -23.4 °F -13.0 °F 77% 30.42 in 10.0 mi WNW 8.1 mph - N/A   Clear
11:35 PM -5.8 °F -21.2 °F -13.0 °F 71% 30.43 in 10.0 mi WNW 8.1 mph - N/A   Clear
11:55 PM -7.6 °F -23.4 °F -13.0 °F 77% 30.43 in 10.0 mi WNW 8.1 mph - N/A   Clear